Volver al catálogo

N1-ATLAS

ActivoCienciaSSO
NORAD 68501·PAYLOAD·🇺🇸 United States

Lanzado Mar 30, 2026 desde Vandenberg Space Force Base

Loading…

Próximos Pases (próximas 24 horas)

TLE

ActualizadoSource: Space-Track

Época: Sep 14, 2026, 19:51 UTC

1 68501U 26067CP  26257.82729272  .00001654  00000-0  16978-3 0  9992
2 68501  97.7729 214.7323 0004904  87.9969 272.1811 14.91739262 25081

Sigue N1-ATLAS en tiempo real con AllMySat

Download on the App Store